Tracking 22879 objects as of 21-Apr-2021
HD Live streaming from Space Station
objects crossing your sky now

STARLINK-2293

Track STARLINK-2293 now!
10-day predictions
STARLINK-2293 is classified as:


NORAD ID: 47863
Int'l Code: 2021-021D
Perigee: 356.2 km
Apogee: 357.6 km
Inclination: 53.1 °
Period: 91.5 minutes
Semi major axis: 6727 km
RCS: Unknown
Launch date: March 14, 2021
Source: United States (US)
Launch site: AIR FORCE EASTERN TEST RANGE (AFETR)
aabbcc
Your satellite tracking list
Your tracking list is empty




NASA's NSSDC Master Catalog

Two Line Element Set (TLE):
1 47863U 21021D   21110.83335648  .00047006  00000-0  33733-3 0  9998
2 47863  53.0508  31.9843 0001006  86.7689 111.7684 15.73205502  6385
Source of the keplerian elements: AFSPC